APL Coral — WDF6832 — position and weather

sailwx.info

Track history (hours):
 
Tides and Currents Weather Stations Pressure Air Temp Water Temp Dewpoint Dewpoint Depression Visibility Wind Speed Wind Dir Waves Ship Positions

APL Coral

Owner: APL Maritime Ltd., Bethesda, MD. More information available from US FCC via Universal Licensing System and Coast Guard Vessel Documentation Center.

Last reported at 2016-Dec-03 19:18 UTC. Time now 2016-Dec-03 19:44 UTC.
Position N 23°37' E 118°20'.

Length 275 m; draft 11.4 m.

Type: Cargo ship. MMSI: 367478280.

Date/timePositionNaut miles runAvg speedWind from/ knotsBaromVisibWave heightAir tempDewpointWater temp
2016-Dec-03 19:18N 23°37' E 118°20'40817.6
2016-Dec-02 20:10N 29°17' E 122°31'1819.2
2016-Dec-02 19:15N 29°35' E 122°31'1013.7
2016-Dec-02 18:33N 29°43' E 122°25'1312.5
2016-Dec-02 17:34N 29°50' E 122°13'1211.9
2016-Dec-02 16:33N 29°56' E 122°01'9 9.3
2016-Dec-02 15:33N 29°57' E 121°50'0 0.2
2016-Dec-02 14:33N 29°57' E 121°50'0 0.0
2016-Dec-02 13:33N 29°57' E 121°50'0 0.0
2016-Dec-02 12:33N 29°57' E 121°50'0 0.0
2016-Dec-02 11:33N 29°57' E 121°50'0 0.0
2016-Dec-02 10:33N 29°57' E 121°50'0 0.0
2016-Dec-02 09:33N 29°57' E 121°50'0 0.0
2016-Dec-02 08:32N 29°57' E 121°50'0 0.0
2016-Dec-02 07:33N 29°57' E 121°50'0 0.0
2016-Dec-02 06:28N 29°57' E 121°50'1 0.9
2016-Dec-02 05:32N 29°58' E 121°50'1312.0
2016-Dec-02 04:29N 29°56' E 122°05'8 8.3
2016-Dec-02 03:32N 29°52' E 122°12'9 8.8
2016-Dec-02 02:33N 29°45' E 122°19'8 7.7
2016-Dec-02 01:30N 29°44' E 122°28'0 0.1
2016-Dec-02 00:26N 29°44' E 122°28'0 0.1
2016-Dec-01 22:24N 29°44' E 122°28'0 0.1
2016-Dec-01 21:33N 29°44' E 122°28'0 0.1
2016-Dec-01 20:32N 29°44' E 122°28'0 0.0
2016-Dec-01 19:32N 29°44' E 122°28'0 0.1
2016-Dec-01 18:33N 29°44' E 122°28'1 0.6
2016-Dec-01 17:33N 29°44' E 122°29'95 9.4
2016-Dec-01 07:25N 31°15' E 121°57'1213.8
2016-Dec-01 06:32N 31°19' E 121°43'8 6.8
2016-Dec-01 05:22N 31°22' E 121°35'0 0.0
2016-Dec-01 04:33N 31°22' E 121°35'0 0.0
2016-Dec-01 03:33N 31°22' E 121°35'0 0.0
2016-Dec-01 02:33N 31°22' E 121°35'0 0.0
2016-Dec-01 01:33N 31°22' E 121°35'0 0.0
2016-Dec-01 00:33N 31°22' E 121°35'0 0.0
2016-Nov-30 23:33N 31°22' E 121°35'0 0.0
2016-Nov-30 22:33N 31°22' E 121°35'0 0.0
2016-Nov-30 21:33N 31°22' E 121°35'0 0.0
2016-Nov-30 20:33N 31°22' E 121°35'0 0.0
2016-Nov-30 19:33N 31°22' E 121°35'0 0.0
2016-Nov-30 18:33N 31°22' E 121°35'0 0.2
2016-Nov-30 17:33N 31°23' E 121°35'5 4.6
2016-Nov-30 16:33N 31°21' E 121°40'9 9.5
2016-Nov-30 15:33N 31°17' E 121°50'  
2016-Nov-28 04:24N 36°00' E 120°13'0 0.0
2016-Nov-28 03:33N 36°00' E 120°13'0 0.0
2016-Nov-28 02:33N 36°00' E 120°13'0 0.0
2016-Nov-28 01:33N 36°00' E 120°13'0 0.0
2016-Nov-28 00:33N 36°00' E 120°13'0 0.0
2016-Nov-27 23:33N 36°00' E 120°13'0 0.0
2016-Nov-27 22:33N 36°00' E 120°13'0 0.0
2016-Nov-27 21:33N 36°00' E 120°13'0 0.0
2016-Nov-27 20:33N 36°00' E 120°13'0 0.0
2016-Nov-27 19:33N 36°00' E 120°13'0 0.0
2016-Nov-27 18:33N 36°00' E 120°13'0 0.0
2016-Nov-27 17:33N 36°00' E 120°13'0 0.0
2016-Nov-27 16:33N 36°00' E 120°13'0 0.0
2016-Nov-27 15:33N 36°00' E 120°13'0 0.0
2016-Nov-27 14:33N 36°00' E 120°13'0 0.0
2016-Nov-27 13:33N 36°00' E 120°13'  
2016-Nov-24 06:00N 23°00' E 117°30'   050 / 251018.0 5.4 20.016.724.0
Track history (hours):
 
Tides and Currents Weather Stations Pressure Air Temp Water Temp Dewpoint Dewpoint Depression Visibility Wind Speed Wind Dir Waves Ship Positions

APL Coral

Owner: APL Maritime Ltd., Bethesda, MD. More information available from US FCC via Universal Licensing System and Coast Guard Vessel Documentation Center.

Last reported at 2016-Dec-03 19:18 UTC. Time now 2016-Dec-03 19:44 UTC.
Position N 23°37' E 118°20'.

Length 275 m; draft 11.4 m.

Type: Cargo ship. MMSI: 367478280.

Date/timePositionNaut miles runAvg speedWind from/ knotsBaromVisibWave heightAir tempDewpointWater temp
2016-Dec-03 19:18N 23°37' E 118°20'40817.6
2016-Dec-02 20:10N 29°17' E 122°31'1819.2
2016-Dec-02 19:15N 29°35' E 122°31'1013.7
2016-Dec-02 18:33N 29°43' E 122°25'1312.5
2016-Dec-02 17:34N 29°50' E 122°13'1211.9
2016-Dec-02 16:33N 29°56' E 122°01'9 9.3
2016-Dec-02 15:33N 29°57' E 121°50'0 0.2
2016-Dec-02 14:33N 29°57' E 121°50'0 0.0
2016-Dec-02 13:33N 29°57' E 121°50'0 0.0
2016-Dec-02 12:33N 29°57' E 121°50'0 0.0
2016-Dec-02 11:33N 29°57' E 121°50'0 0.0
2016-Dec-02 10:33N 29°57' E 121°50'0 0.0
2016-Dec-02 09:33N 29°57' E 121°50'0 0.0
2016-Dec-02 08:32N 29°57' E 121°50'0 0.0
2016-Dec-02 07:33N 29°57' E 121°50'0 0.0
2016-Dec-02 06:28N 29°57' E 121°50'1 0.9
2016-Dec-02 05:32N 29°58' E 121°50'1312.0
2016-Dec-02 04:29N 29°56' E 122°05'8 8.3
2016-Dec-02 03:32N 29°52' E 122°12'9 8.8
2016-Dec-02 02:33N 29°45' E 122°19'8 7.7
2016-Dec-02 01:30N 29°44' E 122°28'0 0.1
2016-Dec-02 00:26N 29°44' E 122°28'0 0.1
2016-Dec-01 22:24N 29°44' E 122°28'0 0.1
2016-Dec-01 21:33N 29°44' E 122°28'0 0.1
2016-Dec-01 20:32N 29°44' E 122°28'0 0.0
2016-Dec-01 19:32N 29°44' E 122°28'0 0.1
2016-Dec-01 18:33N 29°44' E 122°28'1 0.6
2016-Dec-01 17:33N 29°44' E 122°29'95 9.4
2016-Dec-01 07:25N 31°15' E 121°57'1213.8
2016-Dec-01 06:32N 31°19' E 121°43'8 6.8
2016-Dec-01 05:22N 31°22' E 121°35'0 0.0
2016-Dec-01 04:33N 31°22' E 121°35'0 0.0
2016-Dec-01 03:33N 31°22' E 121°35'0 0.0
2016-Dec-01 02:33N 31°22' E 121°35'0 0.0
2016-Dec-01 01:33N 31°22' E 121°35'0 0.0
2016-Dec-01 00:33N 31°22' E 121°35'0 0.0
2016-Nov-30 23:33N 31°22' E 121°35'0 0.0
2016-Nov-30 22:33N 31°22' E 121°35'0 0.0
2016-Nov-30 21:33N 31°22' E 121°35'0 0.0
2016-Nov-30 20:33N 31°22' E 121°35'0 0.0
2016-Nov-30 19:33N 31°22' E 121°35'0 0.0
2016-Nov-30 18:33N 31°22' E 121°35'0 0.2
2016-Nov-30 17:33N 31°23' E 121°35'5 4.6
2016-Nov-30 16:33N 31°21' E 121°40'9 9.5
2016-Nov-30 15:33N 31°17' E 121°50'  
2016-Nov-28 04:24N 36°00' E 120°13'0 0.0
2016-Nov-28 03:33N 36°00' E 120°13'0 0.0
2016-Nov-28 02:33N 36°00' E 120°13'0 0.0
2016-Nov-28 01:33N 36°00' E 120°13'0 0.0
2016-Nov-28 00:33N 36°00' E 120°13'0 0.0
2016-Nov-27 23:33N 36°00' E 120°13'0 0.0
2016-Nov-27 22:33N 36°00' E 120°13'0 0.0
2016-Nov-27 21:33N 36°00' E 120°13'0 0.0
2016-Nov-27 20:33N 36°00' E 120°13'0 0.0
2016-Nov-27 19:33N 36°00' E 120°13'0 0.0
2016-Nov-27 18:33N 36°00' E 120°13'0 0.0
2016-Nov-27 17:33N 36°00' E 120°13'0 0.0
2016-Nov-27 16:33N 36°00' E 120°13'0 0.0
2016-Nov-27 15:33N 36°00' E 120°13'0 0.0
2016-Nov-27 14:33N 36°00' E 120°13'0 0.0
2016-Nov-27 13:33N 36°00' E 120°13'  
2016-Nov-24 06:00N 23°00' E 117°30'   050 / 251018.0 5.4 20.016.724.0

Dump ship's entire track history